• In Denmark
  • List of Countries
  • For 7 days
  • Water Temperature
  • Satellite Maps
  • Weather Map
  • Weather Widgets
  • user-avatar
    Login

    Hourly Weather Sydney

    Today, 20 October, Friday

    Time Temperature Precipitation Wind Pressure Humidity
    00:00 +20°C° 0 mm 3 mps 763 mmHg 80%
    01:00 +20°C° 0 mm 2 mps 763 mmHg 83%
    02:00 +20°C° 0.5 mm 2 mps 762 mmHg 85%
    03:00 +20°C° 0.5 mm 2 mps 762 mmHg 87%
    04:00 +20°C° 0 mm 2 mps 762 mmHg 89%
    05:00 +20°C° 2.3 mm 2 mps 763 mmHg 91%
    06:00 +20°C° 2.3 mm 2 mps 763 mmHg 93%
    07:00 +21°C° 2.3 mm 1 mps 763 mmHg 95%
    08:00 +20°C° 1.7 mm 2 mps 763 mmHg 94%
    09:00 +20°C° 1.7 mm 3 mps 763 mmHg 93%
    10:00 +20°C° 1.7 mm 4 mps 764 mmHg 93%
    11:00 +19°C° 1.2 mm 6 mps 764 mmHg 92%
    12:00 +17°C° 1.2 mm 7 mps 764 mmHg 91%
    13:00 +16°C° 1.2 mm 9 mps 764 mmHg 90%
    14:00 +16°C° 1 mm 8 mps 764 mmHg 90%
    15:00 +15°C° 1 mm 8 mps 764 mmHg 90%
    16:00 +15°C° 1 mm 8 mps 764 mmHg 90%
    17:00 +15°C° 0.4 mm 8 mps 765 mmHg 89%
    18:00 +15°C° 0.4 mm 8 mps 765 mmHg 87%
    19:00 +15°C° 0.4 mm 7 mps 765 mmHg 85%
    20:00 +15°C° 0 mm 7 mps 766 mmHg 83%
    21:00 +15°C° 0 mm 7 mps 766 mmHg 81%
    22:00 +14°C° 0 mm 7 mps 767 mmHg 79%
    23:00 +14°C° 0 mm 7 mps 766 mmHg 78%

    Tomorrow, 21 October, Saturday

    Time Temperature Precipitation Wind Pressure Humidity
    00:00 +14°C° 0 mm 6 mps 766 mmHg 78%
    01:00 +14°C° 0 mm 6 mps 766 mmHg 77%
    02:00 +13°C° 0 mm 6 mps 766 mmHg 78%
    03:00 +11°C° 0 mm 6 mps 765 mmHg 79%
    04:00 +11°C° 0 mm 6 mps 765 mmHg 81%
    05:00 +11°C° 0.1 mm 6 mps 765 mmHg 78%
    06:00 +13°C° 0.1 mm 6 mps 765 mmHg 75%
    07:00 +13°C° 0.1 mm 6 mps 766 mmHg 73%
    08:00 +14°C° 0.1 mm 5 mps 765 mmHg 70%
    09:00 +15°C° 0.1 mm 5 mps 765 mmHg 67%
    10:00 +16°C° 0.1 mm 5 mps 765 mmHg 64%
    11:00 +17°C° 0.2 mm 5 mps 764 mmHg 62%
    12:00 +19°C° 0.2 mm 5 mps 764 mmHg 59%
    13:00 +20°C° 0.2 mm 5 mps 763 mmHg 57%
    14:00 +20°C° 0.1 mm 5 mps 763 mmHg 57%
    15:00 +20°C° 0.1 mm 5 mps 762 mmHg 57%
    16:00 +20°C° 0.1 mm 5 mps 762 mmHg 56%
    17:00 +18°C° 0 mm 4 mps 762 mmHg 65%
    18:00 +17°C° 0 mm 4 mps 762 mmHg 73%
    19:00 +14°C° 0 mm 3 mps 762 mmHg 81%
    20:00 +14°C° 0 mm 3 mps 762 mmHg 83%
    21:00 +15°C° 0 mm 2 mps 763 mmHg 84%
    22:00 +14°C° 0 mm 2 mps 763 mmHg 86%
    23:00 +14°C° 0 mm 2 mps 762 mmHg 86%

    Day after tomorrow, 22 October, Sunday

    Time Temperature Precipitation Wind Pressure Humidity
    00:00 +14°C° 0 mm 2 mps 762 mmHg 86%
    01:00 +14°C° 0 mm 2 mps 761 mmHg 86%
    02:00 +14°C° 0 mm 2 mps 761 mmHg 87%
    03:00 +14°C° 0 mm 2 mps 760 mmHg 87%
    04:00 +14°C° 0 mm 2 mps 760 mmHg 88%
    05:00 +15°C° 0 mm 2 mps 760 mmHg 83%
    06:00 +16°C° 0 mm 2 mps 760 mmHg 78%
    07:00 +17°C° 0 mm 2 mps 760 mmHg 73%
    08:00 +20°C° 0 mm 1 mps 760 mmHg 63%
    09:00 +22°C° 0 mm 1 mps 760 mmHg 53%
    10:00 +25°C° 0 mm 1 mps 759 mmHg 44%
    11:00 +25°C° 0 mm 1 mps 759 mmHg 41%
    12:00 +26°C° 0 mm 2 mps 758 mmHg 38%
    13:00 +27°C° 0 mm 2 mps 757 mmHg 35%
    14:00 +25°C° 0 mm 3 mps 757 mmHg 42%
    15:00 +23°C° 0 mm 4 mps 757 mmHg 49%
    16:00 +21°C° 0 mm 5 mps 757 mmHg 56%
    17:00 +19°C° 0.4 mm 4 mps 757 mmHg 66%
    18:00 +18°C° 0.4 mm 4 mps 758 mmHg 75%
    19:00 +15°C° 0.4 mm 4 mps 758 mmHg 85%
    20:00 +16°C° 0.6 mm 3 mps 759 mmHg 85%
    21:00 +16°C° 0.6 mm 3 mps 759 mmHg 85%
    22:00 +16°C° 0.6 mm 3 mps 760 mmHg 85%
    23:00 +16°C° 0.1 mm 3 mps 760 mmHg 85%

    23 October, Monday

    Time Temperature Precipitation Wind Pressure Humidity
    00:00 +16°C° 0.1 mm 3 mps 760 mmHg 85%
    01:00 +14°C° 0.1 mm 3 mps 759 mmHg 86%
    02:00 +14°C° 0 mm 3 mps 760 mmHg 87%
    03:00 +13°C° 0 mm 4 mps 760 mmHg 88%
    04:00 +12°C° 0 mm 4 mps 760 mmHg 89%
    05:00 +13°C° 0 mm 4 mps 760 mmHg 85%
    06:00 +14°C° 0 mm 4 mps 761 mmHg 81%
    07:00 +15°C° 0 mm 4 mps 761 mmHg 76%
    08:00 +18°C° 0 mm 4 mps 761 mmHg 65%
    09:00 +21°C° 0 mm 4 mps 761 mmHg 54%
    10:00 +23°C° 0 mm 4 mps 762 mmHg 43%
    11:00 +23°C° 0 mm 4 mps 761 mmHg 42%
    12:00 +25°C° 0 mm 4 mps 761 mmHg 40%
    13:00 +26°C° 0 mm 4 mps 761 mmHg 38%
    14:00 +25°C° 0 mm 4 mps 761 mmHg 42%
    15:00 +23°C° 0 mm 4 mps 761 mmHg 45%
    16:00 +22°C° 0 mm 4 mps 761 mmHg 48%
    17:00 +21°C° 0 mm 3 mps 761 mmHg 56%
    18:00 +19°C° 0 mm 3 mps 762 mmHg 63%
    19:00 +17°C° 0 mm 2 mps 762 mmHg 71%
    20:00 +16°C° 0 mm 2 mps 762 mmHg 74%
    21:00 +16°C° 0 mm 1 mps 763 mmHg 77%
    22:00 +15°C° 0 mm 1 mps 763 mmHg 80%
    23:00 +15°C° 0 mm 1 mps 763 mmHg 82%

    24 October, Tuesday

    Time Temperature Precipitation Wind Pressure Humidity
    00:00 +14°C° 0 mm 2 mps 763 mmHg 84%
    01:00 +14°C° 0 mm 2 mps 762 mmHg 86%
    02:00 +14°C° 0 mm 2 mps 762 mmHg 87%
    03:00 +14°C° 0 mm 2 mps 762 mmHg 88%
    04:00 +13°C° 0 mm 2 mps 762 mmHg 89%
    05:00 +15°C° 0 mm 2 mps 762 mmHg 82%
    06:00 +16°C° 0 mm 3 mps 763 mmHg 75%
    07:00 +18°C° 0 mm 3 mps 763 mmHg 67%
    08:00 +21°C° 0 mm 3 mps 763 mmHg 57%
    09:00 +25°C° 0 mm 3 mps 762 mmHg 47%
    10:00 +28°C° 0 mm 3 mps 762 mmHg 36%
    11:00 +29°C° 0 mm 3 mps 761 mmHg 33%
    12:00 +30°C° 0 mm 4 mps 761 mmHg 30%
    13:00 +32°C° 0 mm 5 mps 760 mmHg 27%
    14:00 +29°C° 0 mm 5 mps 760 mmHg 34%
    15:00 +27°C° 0 mm 6 mps 759 mmHg 41%
    16:00 +26°C° 0 mm 6 mps 759 mmHg 48%
    17:00 +23°C° 0 mm 6 mps 759 mmHg 53%
    18:00 +22°C° 0 mm 6 mps 760 mmHg 58%
    19:00 +21°C° 0 mm 5 mps 760 mmHg 63%
    20:00 +20°C° 0 mm 4 mps 760 mmHg 67%
    21:00 +19°C° 0 mm 4 mps 760 mmHg 71%
    22:00 +18°C° 0 mm 3 mps 760 mmHg 76%
    23:00 +18°C° 0 mm 3 mps 760 mmHg 74%

    25 October, Wednesday

    Time Temperature Precipitation Wind Pressure Humidity
    00:00 +18°C° 0 mm 2 mps 760 mmHg 73%
    01:00 +18°C° 0 mm 2 mps 759 mmHg 72%
    02:00 +18°C° 0 mm 3 mps 759 mmHg 72%
    03:00 +18°C° 0 mm 3 mps 759 mmHg 73%
    04:00 +18°C° 0 mm 4 mps 759 mmHg 73%
    05:00 +18°C° 0 mm 3 mps 760 mmHg 71%
    06:00 +19°C° 0 mm 3 mps 760 mmHg 70%
    07:00 +19°C° 0 mm 2 mps 760 mmHg 69%
    08:00 +21°C° 0 mm 2 mps 760 mmHg 60%
    09:00 +25°C° 0 mm 2 mps 760 mmHg 51%
    10:00 +27°C° 0 mm 2 mps 760 mmHg 42%
    11:00 +28°C° 0 mm 2 mps 759 mmHg 37%
    12:00 +30°C° 0 mm 2 mps 759 mmHg 32%
    13:00 +31°C° 0 mm 3 mps 758 mmHg 27%
    14:00 +31°C° 0 mm 3 mps 757 mmHg 28%
    15:00 +32°C° 0 mm 4 mps 757 mmHg 30%
    16:00 +32°C° 0 mm 4 mps 756 mmHg 31%
    17:00 +28°C° 0.2 mm 3 mps 757 mmHg 43%
    18:00 +25°C° 0.2 mm 3 mps 757 mmHg 56%
    19:00 +23°C° 0.2 mm 2 mps 758 mmHg 68%
    20:00 +21°C° 0.1 mm 3 mps 758 mmHg 73%
    21:00 +20°C° 0.1 mm 4 mps 758 mmHg 77%
    22:00 +19°C° 0.1 mm 5 mps 758 mmHg 82%
    23:00 +19°C° 0 mm 5 mps 757 mmHg 83%
    Show more